sat.trackr.live / text

‹ back to catalog

STARLINK-32244

NORAD 60411 · 2024-141P

PAYLOAD ACTIVE UNKNOWN

§ Identity

Operator
Country
US
Launch date
2024-08-10
Launch site
AFETR
Launch vehicle
Mass (kg)
RCS (m²)

Purposes: comms

External: N2YO · Heavens-Above · Gunter

§ Orbital elements

Epoch: 2026-05-24T23:50:42.789984Z

Period
94.01 min
Inclination
53.1632°
Eccentricity
0.0001014
Mean motion
15.31698209 rev/d
Perigee alt
470.1 km
Apogee alt
471.4 km
Semi-major
6,848.9 km
B*
1.7074e-5
RAAN
248.1278°
Arg perigee
99.0887°
Mean anomaly
261.0229°
Rev number
10,126

§ Raw data

STARLINK-322441 60411U 24141P   26144.99355081  .00000165  00000+0  17074-4 0  99952 60411  53.1632 248.1278 0001014  99.0887 261.0229 15.31698209101269

JSON: /api/v1/satellites/60411 · /tle

For live sub-satellite position, see the globe view (requires WebGL).

§ Visibility from observer

Set your observer location to see the next 7 days of passes ≥ 10°. The values pass through the URL so the page stays shareable.

No JS? Fill the form by hand. The geolocation button needs JavaScript.